Weather in Krasnoperekopsk

Russia / Republic of Crimea     45˚57′13″N   33˚47′31″E
temp.,
°C
wind,
m/s
gust,
m/s
humid.,
%
clouds,
%
prec.,
mm/h
press.,
hPa
HPBL,
m
28 november, sat
sat2800:00+9˚ssw510860 0.0 1022395
03:00+9˚ssw598616 0.0 1021297
06:00+8˚s579010 0.0 1020212
09:00+8˚sse468151 0.0 1020187
12:00+10˚sse457198 0.0 1020274
15:00+12˚sse456699 0.0 1019479
18:00+11˚sse3472100 0.0 101899
21:00+10˚sse4679100 0.0 1018139
29 november, sun
sun2900:00+10˚s5880100 0.0 1019271
03:00+9˚s4583100 0.0 1019137
06:00+10˚sse468696 0.0 1019158
09:00+9˚sse578398 0.0 1020177
12:00+11˚sse567298 0.0 1020303
15:00+13˚s467399 0.1 1020315
18:00+11˚sse4478100 0.0 102054
21:00+10˚se5774100 0.0 1020141
30 november, mon
mon3000:00+9˚se4670100 0.0 1020103
03:00+9˚se3371100 0.0 102051
06:00+9˚ese3367100 0.0 101944
09:00+9˚e4578100 0.0 1020145
12:00+10˚e6871100 0.0 1020344
15:00+9˚e71074100 0.0 1019425
18:00+8˚e71186100 0.0 1019437
21:00+8˚e71186100 0.0 1020476
1 december, tue
tue100:00+8˚ene6986100 0.0 1019423
03:00+7˚ne6989100 0.0 1019436
06:00+7˚ene7984100 0.0 1019681
09:00+8˚ene7979100 0.1 1020853
12:00+8˚ene81078100 0.1 1020901
15:00+7˚ene8974100 0.1 1020966
18:00+7˚ene7976100 0.1 1021942
21:00+7˚ene7875100 0.2 1021846
2 december, wed
wed200:00+6˚ne7880100 0.0 1021589
03:00+7˚ne6881100 0.0 1021516
06:00+7˚ne6885100 0.0 1022499
09:00+8˚ene6986100 0.2 1022559
12:00+8˚e7985100 0.2 1023528
15:00+8˚e7984100 0.3 1022515
18:00+7˚e71086100 0.0 1022539
21:00+8˚e6984100 0.1 1023583